WZZ6LM LHBP-EDDB

Flight info

Callsign WZZ6LM
Flight time 1h 13m
Altitude 34000
Route BADOV DCT MAVOR DCT KATQA DCT ODLIV DCT BEFRE T204 NUKRO NUKRO1R
Aircraft A321/M-SDE1E2E3FGIJ1J4RWXY/LB1

Departure

Time 2026-05-05 12:03
Airport Budapest Liszt Ferenc International Airport (LHBP)

Arrival

Time 2026-05-05 13:16
Airport Berlin Brandenburg Airport (EDDB)
Time Latitude Longitude Altitude Speed Heading
2026-05-05 11:43 47.43511 19.26478 458 ft 0 kts 222°
2026-05-05 11:54 47.43515 19.26484 458 ft 2 kts 224°
2026-05-05 11:55 47.43528 19.26505 456 ft 3 kts 240°
2026-05-05 11:55 47.43536 19.26531 458 ft 3 kts 264°
2026-05-05 11:55 47.43535 19.26557 458 ft 3 kts 299°
2026-05-05 11:55 47.43530 19.26569 453 ft 0 kts 312°
2026-05-05 11:58 47.43531 19.26568 453 ft 1 kts 312°
2026-05-05 11:58 47.43542 19.26550 458 ft 4 kts 312°
2026-05-05 11:59 47.43572 19.26502 458 ft 8 kts 312°
2026-05-05 11:59 47.43618 19.26427 458 ft 11 kts 312°
2026-05-05 11:59 47.43668 19.26336 458 ft 12 kts 297°
2026-05-05 11:59 47.43676 19.26206 457 ft 13 kts 268°
2026-05-05 12:00 47.43685 19.26065 457 ft 15 kts 296°
2026-05-05 12:00 47.43744 19.25972 457 ft 11 kts 338°
2026-05-05 12:00 47.43815 19.26020 457 ft 12 kts 41°
2026-05-05 12:00 47.43882 19.26110 458 ft 14 kts 41°
2026-05-05 12:01 47.43954 19.26206 458 ft 14 kts 42°
2026-05-05 12:01 47.44028 19.26306 462 ft 15 kts 45°
2026-05-05 12:01 47.44068 19.26428 472 ft 11 kts 81°
2026-05-05 12:01 47.44057 19.26538 471 ft 12 kts 116°
2026-05-05 12:02 47.44040 19.26571 469 ft 0 kts 132°
2026-05-05 12:02 47.43888 19.26816 472 ft 71 kts 133°
2026-05-05 12:02 47.43399 19.27604 464 ft 135 kts 133°
2026-05-05 12:03 47.42671 19.28795 715 ft 162 kts 139°
2026-05-05 12:03 47.42056 19.30174 1474 ft 163 kts 117°
2026-05-05 12:03 47.41627 19.31807 1943 ft 179 kts 124°
2026-05-05 12:03 47.40966 19.33488 2239 ft 200 kts 127°
2026-05-05 12:04 47.40188 19.35328 2543 ft 224 kts 127°
2026-05-05 12:04 47.39334 19.37373 3121 ft 239 kts 125°
2026-05-05 12:04 47.38508 19.39542 3814 ft 253 kts 115°
2026-05-05 12:04 47.38379 19.42230 4372 ft 277 kts 77°
2026-05-05 12:05 47.39324 19.44749 5164 ft 288 kts 50°
2026-05-05 12:05 47.40790 19.46788 6007 ft 293 kts 40°
2026-05-05 12:05 47.42413 19.48655 6788 ft 298 kts 38°
2026-05-05 12:05 47.44060 19.50549 7518 ft 302 kts 40°
2026-05-05 12:06 47.45657 19.52525 8264 ft 305 kts 43°
2026-05-05 12:06 47.47239 19.54642 9060 ft 308 kts 45°
2026-05-05 12:06 47.48797 19.56852 9830 ft 313 kts 46°
2026-05-05 12:06 47.50367 19.59160 10310 ft 328 kts 47°
2026-05-05 12:07 47.52026 19.61649 10525 ft 351 kts 47°
2026-05-05 12:07 47.53772 19.64259 11017 ft 362 kts 44°
2026-05-05 12:07 47.55142 19.65773 11459 ft 367 kts 30°
2026-05-05 12:07 47.57515 19.67016 12137 ft 370 kts
2026-05-05 12:08 47.60073 19.66928 12831 ft 370 kts 345°
2026-05-05 12:08 47.62441 19.65509 13514 ft 367 kts 324°
2026-05-05 12:08 47.64339 19.63025 14148 ft 365 kts 309°
2026-05-05 12:08 47.66063 19.60245 14786 ft 367 kts 309°
2026-05-05 12:09 47.67796 19.57442 15454 ft 370 kts 309°
2026-05-05 12:09 47.69545 19.54619 16089 ft 373 kts 309°
2026-05-05 12:09 47.71310 19.51777 16766 ft 376 kts 309°
2026-05-05 12:09 47.73094 19.48904 17413 ft 379 kts 309°
2026-05-05 12:10 47.74888 19.46004 18008 ft 383 kts 309°
2026-05-05 12:10 47.76697 19.43074 18584 ft 386 kts 309°
2026-05-05 12:10 47.78518 19.40123 19152 ft 389 kts 309°
2026-05-05 12:10 47.80357 19.37147 19737 ft 391 kts 309°
2026-05-05 12:11 47.82205 19.34158 20332 ft 394 kts 309°
2026-05-05 12:11 47.84039 19.31189 20901 ft 396 kts 309°
2026-05-05 12:11 47.85908 19.28157 21496 ft 398 kts 309°
2026-05-05 12:11 47.87783 19.25107 22106 ft 401 kts 310°
2026-05-05 12:12 47.89667 19.22038 22691 ft 402 kts 309°
2026-05-05 12:12 47.91560 19.18948 23282 ft 404 kts 309°
2026-05-05 12:12 47.93458 19.15842 23791 ft 406 kts 309°
2026-05-05 12:12 47.95292 19.12634 24218 ft 406 kts 303°
2026-05-05 12:13 47.96755 19.09035 24634 ft 406 kts 293°
2026-05-05 12:13 47.97785 19.05123 25053 ft 405 kts 284°
2026-05-05 12:13 47.98540 19.01068 25461 ft 407 kts 283°
2026-05-05 12:13 47.99292 18.96977 25874 ft 410 kts 283°
2026-05-05 12:14 48.00043 18.92859 26290 ft 412 kts 283°
2026-05-05 12:14 48.00800 18.88715 26678 ft 415 kts 282°
2026-05-05 12:14 48.01714 18.84607 27045 ft 420 kts 291°
2026-05-05 12:14 48.03096 18.80726 27421 ft 426 kts 301°
2026-05-05 12:15 48.04923 18.77204 27804 ft 433 kts 310°
2026-05-05 12:15 48.07019 18.73945 28177 ft 436 kts 311°
2026-05-05 12:15 48.09128 18.70662 28535 ft 439 kts 311°
2026-05-05 12:15 48.11217 18.67397 28897 ft 442 kts 311°
2026-05-05 12:16 48.13343 18.64064 29259 ft 444 kts 311°
2026-05-05 12:16 48.15482 18.60699 29618 ft 447 kts 311°
2026-05-05 12:16 48.17629 18.57311 29958 ft 449 kts 310°
2026-05-05 12:16 48.19783 18.53907 30264 ft 452 kts 310°
2026-05-05 12:17 48.21949 18.50481 30590 ft 453 kts 310°
2026-05-05 12:17 48.24122 18.47046 30924 ft 455 kts 310°
2026-05-05 12:17 48.26302 18.43601 31263 ft 456 kts 310°
2026-05-05 12:17 48.28488 18.40144 31662 ft 455 kts 310°
2026-05-05 12:18 48.30661 18.36703 32141 ft 453 kts 310°
2026-05-05 12:18 48.32823 18.33277 32606 ft 451 kts 310°
2026-05-05 12:18 48.34976 18.29860 33075 ft 449 kts 310°
2026-05-05 12:18 48.37117 18.26456 33534 ft 447 kts 310°
2026-05-05 12:19 48.39251 18.23059 33856 ft 446 kts 310°
2026-05-05 12:19 48.41364 18.19692 33905 ft 437 kts 310°
2026-05-05 12:19 48.45492 18.13095 33905 ft 430 kts 310°
2026-05-05 12:20 48.49559 18.06574 33898 ft 429 kts 310°
2026-05-05 12:20 48.53646 18.00000 33894 ft 429 kts 310°
2026-05-05 12:21 48.57732 17.93426 33892 ft 429 kts 310°
2026-05-05 12:21 48.61812 17.86851 33896 ft 429 kts 309°
2026-05-05 12:22 48.65887 17.80249 33899 ft 429 kts 310°
2026-05-05 12:22 48.69961 17.73640 33904 ft 429 kts 310°
2026-05-05 12:23 48.74027 17.67014 33904 ft 429 kts 310°
2026-05-05 12:23 48.78089 17.60389 33899 ft 429 kts 310°
2026-05-05 12:24 48.82144 17.53758 33880 ft 429 kts 310°
2026-05-05 12:24 48.86335 17.47303 33883 ft 429 kts 313°
2026-05-05 12:25 48.90626 17.41079 33879 ft 429 kts 313°
2026-05-05 12:25 48.94935 17.34800 33882 ft 429 kts 313°
2026-05-05 12:26 48.99197 17.28453 33876 ft 429 kts 313°
2026-05-05 12:26 49.03433 17.22060 33876 ft 429 kts 312°
2026-05-05 12:27 49.07606 17.15577 33871 ft 428 kts 312°
2026-05-05 12:27 49.11753 17.09050 33869 ft 428 kts 311°
2026-05-05 12:28 49.15903 17.02538 33873 ft 428 kts 312°
2026-05-05 12:28 49.20068 16.96037 33876 ft 428 kts 312°
2026-05-05 12:29 49.24226 16.89538 33874 ft 427 kts 312°
2026-05-05 12:29 49.28367 16.83013 33875 ft 427 kts 312°
2026-05-05 12:30 49.32502 16.76478 33869 ft 427 kts 312°
2026-05-05 12:30 49.36616 16.69980 33874 ft 427 kts 312°
2026-05-05 12:31 49.40754 16.63428 33868 ft 427 kts 311°
2026-05-05 12:31 49.44883 16.56869 33866 ft 427 kts 311°
2026-05-05 12:32 49.49014 16.50300 33860 ft 427 kts 311°
2026-05-05 12:32 49.53128 16.43708 33857 ft 427 kts 311°
2026-05-05 12:33 49.57237 16.37123 33854 ft 426 kts 311°
2026-05-05 12:33 49.61335 16.30521 33851 ft 426 kts 311°
2026-05-05 12:34 49.65431 16.23916 33847 ft 426 kts 311°
2026-05-05 12:34 49.69529 16.17308 33846 ft 425 kts 311°
2026-05-05 12:35 49.73612 16.10709 33846 ft 425 kts 311°
2026-05-05 12:35 49.77684 16.04094 33843 ft 425 kts 311°
2026-05-05 12:36 49.81757 15.97471 33841 ft 424 kts 310°
2026-05-05 12:36 49.85812 15.90850 33839 ft 423 kts 310°
2026-05-05 12:37 49.89837 15.84276 33836 ft 423 kts 310°
2026-05-05 12:37 49.93876 15.77659 33835 ft 422 kts 310°
2026-05-05 12:38 49.97905 15.71048 33833 ft 421 kts 310°
2026-05-05 12:38 50.01917 15.64425 33834 ft 421 kts 310°
2026-05-05 12:39 50.05926 15.57797 33833 ft 421 kts 310°
2026-05-05 12:39 50.09927 15.51164 33831 ft 420 kts 310°
2026-05-05 12:40 50.13926 15.44518 33841 ft 420 kts 310°
2026-05-05 12:40 50.17916 15.37871 33832 ft 420 kts 310°
2026-05-05 12:41 50.21901 15.31217 33838 ft 419 kts 310°
2026-05-05 12:41 50.25881 15.24548 33841 ft 419 kts 309°
2026-05-05 12:42 50.29851 15.17888 33841 ft 419 kts 309°
2026-05-05 12:42 50.33793 15.11264 33839 ft 418 kts 309°
2026-05-05 12:43 50.37746 15.04581 33837 ft 418 kts 309°
2026-05-05 12:43 50.41693 14.97886 33829 ft 418 kts 309°
2026-05-05 12:44 50.45674 14.91237 33831 ft 419 kts 314°
2026-05-05 12:44 50.50587 14.86189 33831 ft 429 kts 333°
2026-05-05 12:45 50.56381 14.83664 33832 ft 434 kts 343°
2026-05-05 12:45 50.62274 14.81515 33837 ft 435 kts 342°
2026-05-05 12:46 50.68165 14.79341 33839 ft 435 kts 342°
2026-05-05 12:46 50.71101 14.78261 33583 ft 431 kts 342°
2026-05-05 12:46 50.74011 14.77197 33313 ft 428 kts 342°
2026-05-05 12:47 50.76905 14.76137 33039 ft 424 kts 342°
2026-05-05 12:47 50.79764 14.75091 32593 ft 420 kts 342°
2026-05-05 12:47 50.82603 14.74049 32125 ft 417 kts 342°
2026-05-05 12:47 50.85422 14.73015 31658 ft 414 kts 342°
2026-05-05 12:48 50.88217 14.71984 31200 ft 411 kts 342°
2026-05-05 12:48 50.90994 14.70952 30741 ft 409 kts 342°
2026-05-05 12:48 50.93753 14.69925 30296 ft 407 kts 342°
2026-05-05 12:48 50.96498 14.68882 29852 ft 404 kts 342°
2026-05-05 12:49 50.99181 14.67821 29387 ft 401 kts 341°
2026-05-05 12:49 51.01870 14.66731 28963 ft 397 kts 341°
2026-05-05 12:49 51.04535 14.65639 28550 ft 394 kts 341°
2026-05-05 12:49 51.07184 14.64553 28144 ft 392 kts 341°
2026-05-05 12:50 51.09812 14.63486 27728 ft 390 kts 342°
2026-05-05 12:50 51.12435 14.62425 27341 ft 387 kts 342°
2026-05-05 12:50 51.15034 14.61375 26960 ft 384 kts 342°
2026-05-05 12:50 51.17618 14.60331 26567 ft 382 kts 342°
2026-05-05 12:51 51.20182 14.59299 26192 ft 379 kts 342°
2026-05-05 12:51 51.22726 14.58273 25823 ft 376 kts 342°
2026-05-05 12:51 51.25256 14.57250 25429 ft 373 kts 342°
2026-05-05 12:51 51.27766 14.56231 25035 ft 371 kts 342°
2026-05-05 12:52 51.30256 14.55216 24641 ft 369 kts 342°
2026-05-05 12:52 51.32735 14.54201 24242 ft 367 kts 342°
2026-05-05 12:52 51.35205 14.53191 23842 ft 366 kts 342°
2026-05-05 12:52 51.37672 14.52205 23431 ft 366 kts 345°
2026-05-05 12:53 51.40201 14.51675 22965 ft 367 kts 351°
2026-05-05 12:53 51.42731 14.51294 22541 ft 364 kts 351°
2026-05-05 12:53 51.45245 14.50912 22110 ft 362 kts 351°
2026-05-05 12:53 51.47746 14.50529 21684 ft 360 kts 351°
2026-05-05 12:54 51.52704 14.49767 20842 ft 356 kts 351°
2026-05-05 12:54 51.55166 14.49390 20418 ft 354 kts 351°
2026-05-05 12:54 51.57578 14.49017 19996 ft 353 kts 351°
2026-05-05 12:55 51.60016 14.48640 19583 ft 351 kts 351°
2026-05-05 12:55 51.62442 14.48263 19167 ft 350 kts 351°
2026-05-05 12:55 51.64862 14.47888 18738 ft 348 kts 350°
2026-05-05 12:55 51.67272 14.47516 18330 ft 347 kts 350°
2026-05-05 12:56 51.69673 14.47145 17880 ft 346 kts 351°
2026-05-05 12:56 51.72066 14.46773 17452 ft 344 kts 350°
2026-05-05 12:56 51.74438 14.46403 17040 ft 341 kts 350°
2026-05-05 12:56 51.76792 14.46034 16626 ft 339 kts 350°
2026-05-05 12:57 51.79134 14.45671 16219 ft 337 kts 351°
2026-05-05 12:57 51.81461 14.45311 15815 ft 335 kts 351°
2026-05-05 12:57 51.83779 14.44948 15411 ft 334 kts 351°
2026-05-05 12:57 51.86082 14.44582 15007 ft 332 kts 351°
2026-05-05 12:58 51.88379 14.44204 14608 ft 330 kts 348°
2026-05-05 12:58 51.90513 14.43074 14221 ft 319 kts 324°
2026-05-05 12:58 51.92126 14.40739 13842 ft 308 kts 301°
2026-05-05 12:58 51.93251 14.37815 13449 ft 305 kts 296°
2026-05-05 12:59 51.94298 14.34832 13047 ft 304 kts 295°
2026-05-05 12:59 51.95331 14.31860 12656 ft 302 kts 295°
2026-05-05 12:59 51.96356 14.28901 12261 ft 300 kts 295°
2026-05-05 13:00 51.98382 14.23021 11517 ft 297 kts 295°
2026-05-05 13:00 51.99380 14.20107 11131 ft 295 kts 295°
2026-05-05 13:01 52.02055 14.11262 10239 ft 287 kts 286°
2026-05-05 13:01 52.02685 14.08218 9955 ft 282 kts 285°
2026-05-05 13:01 52.03293 14.05231 9850 ft 277 kts 285°
2026-05-05 13:01 52.03895 14.02252 9864 ft 278 kts 285°
2026-05-05 13:02 52.04489 13.99302 9869 ft 278 kts 285°
2026-05-05 13:02 52.05087 13.96317 9871 ft 278 kts 285°
2026-05-05 13:02 52.05683 13.93328 9758 ft 278 kts 285°
2026-05-05 13:02 52.06274 13.90346 9438 ft 276 kts 285°
2026-05-05 13:03 52.06856 13.87381 9128 ft 275 kts 285°
2026-05-05 13:03 52.07430 13.84416 8815 ft 274 kts 285°
2026-05-05 13:03 52.07993 13.81461 8506 ft 273 kts 285°
2026-05-05 13:03 52.08536 13.78507 8200 ft 272 kts 284°
2026-05-05 13:04 52.09069 13.75561 7894 ft 271 kts 285°
2026-05-05 13:04 52.09419 13.73616 7694 ft 271 kts 285°
2026-05-05 13:04 52.09946 13.70688 7402 ft 269 kts 285°
2026-05-05 13:04 52.10469 13.67767 7149 ft 269 kts 285°
2026-05-05 13:05 52.10991 13.64846 6908 ft 268 kts 285°
2026-05-05 13:05 52.11510 13.61935 6662 ft 268 kts 285°
2026-05-05 13:05 52.12027 13.59031 6413 ft 267 kts 285°
2026-05-05 13:05 52.12543 13.56142 6158 ft 265 kts 285°
2026-05-05 13:06 52.13059 13.53261 5922 ft 265 kts 285°
2026-05-05 13:06 52.13575 13.50383 5661 ft 264 kts 285°
2026-05-05 13:06 52.14088 13.47516 5405 ft 264 kts 285°
2026-05-05 13:06 52.14598 13.44655 5151 ft 263 kts 285°
2026-05-05 13:07 52.15105 13.41799 4907 ft 262 kts 285°
2026-05-05 13:07 52.15610 13.38952 4650 ft 261 kts 285°
2026-05-05 13:07 52.16111 13.36119 4387 ft 260 kts 286°
2026-05-05 13:07 52.16610 13.33286 4141 ft 260 kts 286°
2026-05-05 13:08 52.17099 13.30502 4008 ft 250 kts 286°
2026-05-05 13:08 52.17566 13.27858 4017 ft 234 kts 285°
2026-05-05 13:08 52.18013 13.25351 4019 ft 230 kts 286°
2026-05-05 13:08 52.18448 13.22846 4017 ft 229 kts 285°
2026-05-05 13:09 52.18879 13.20343 4012 ft 230 kts 288°
2026-05-05 13:09 52.19551 13.17986 4016 ft 230 kts 302°
2026-05-05 13:09 52.20723 13.16270 4015 ft 225 kts 330°
2026-05-05 13:09 52.22120 13.15170 4015 ft 222 kts 335°
2026-05-05 13:10 52.23528 13.14150 4016 ft 221 kts 335°
2026-05-05 13:10 52.24923 13.13154 4017 ft 222 kts 335°
2026-05-05 13:10 52.26355 13.12139 4016 ft 222 kts 338°
2026-05-05 13:10 52.27853 13.11889 4008 ft 224 kts 14°
2026-05-05 13:11 52.29119 13.13318 4015 ft 228 kts 56°
2026-05-05 13:11 52.29511 13.15785 4026 ft 229 kts 94°
2026-05-05 13:11 52.29413 13.18389 3946 ft 230 kts 83°
2026-05-05 13:11 52.29997 13.20770 3714 ft 225 kts 59°
2026-05-05 13:12 52.30673 13.23044 3428 ft 219 kts 67°
2026-05-05 13:12 52.31218 13.25280 3155 ft 203 kts 68°
2026-05-05 13:12 52.31720 13.27380 2881 ft 195 kts 68°
2026-05-05 13:12 52.32206 13.29411 2615 ft 186 kts 67°
2026-05-05 13:13 52.32660 13.31304 2383 ft 173 kts 67°
2026-05-05 13:13 52.33093 13.33112 2154 ft 169 kts 67°
2026-05-05 13:13 52.33519 13.34891 1946 ft 159 kts 67°
2026-05-05 13:13 52.33906 13.36508 1725 ft 148 kts 67°
2026-05-05 13:14 52.34274 13.38047 1524 ft 143 kts 67°
2026-05-05 13:14 52.34636 13.39558 1335 ft 142 kts 67°
2026-05-05 13:14 52.34995 13.41062 1144 ft 142 kts 67°
2026-05-05 13:14 52.35350 13.42565 943 ft 141 kts 68°
2026-05-05 13:15 52.35714 13.44056 752 ft 141 kts 69°
2026-05-05 13:15 52.36069 13.45547 567 ft 140 kts 70°
2026-05-05 13:15 52.36423 13.47023 384 ft 139 kts 71°
2026-05-05 13:15 52.36768 13.48498 219 ft 139 kts 71°
2026-05-05 13:16 52.37098 13.49890 159 ft 113 kts 68°
2026-05-05 13:16 52.37322 13.50833 158 ft 52 kts 69°
2026-05-05 13:16 52.37433 13.51312 161 ft 35 kts 73°
2026-05-05 13:16 52.37451 13.51614 160 ft 19 kts 95°
2026-05-05 13:17 52.37440 13.51743 162 ft 11 kts 98°
2026-05-05 13:17 52.37427 13.51869 162 ft 12 kts 101°
2026-05-05 13:17 52.37365 13.51937 160 ft 13 kts 200°
2026-05-05 13:17 52.37319 13.51816 160 ft 12 kts 249°
2026-05-05 13:18 52.37286 13.51675 159 ft 14 kts 249°
2026-05-05 13:18 52.37249 13.51521 160 ft 12 kts 249°
2026-05-05 13:18 52.37188 13.51431 158 ft 14 kts 179°
2026-05-05 13:18 52.37101 13.51478 158 ft 14 kts 161°
2026-05-05 13:19 52.37027 13.51395 156 ft 15 kts 249°
2026-05-05 13:19 52.36985 13.51220 155 ft 17 kts 249°
2026-05-05 13:19 52.36941 13.51035 155 ft 15 kts 249°
2026-05-05 13:19 52.36901 13.50867 155 ft 17 kts 249°
2026-05-05 13:20 52.36864 13.50711 155 ft 8 kts 249°
2026-05-05 13:20 52.36841 13.50615 155 ft 8 kts 249°
2026-05-05 13:20 52.36814 13.50588 156 ft 5 kts 173°
2026-05-05 13:20 52.36776 13.50610 155 ft 3 kts 159°
2026-05-05 13:21 52.36763 13.50619 155 ft 0 kts 159°